User: anonymous   Login
Location: Newark
(12.4436°N, 0.6167°W)
Time: 21:21:39
(UTC+00:00)
Language:

Vanguard 2 Rocket - Orbit

View from above orbital plane
View from above orbital plane
View from above satellite
View from above satellite

Ground track
Ground track

The orbit data is extracted from the following two-line orbital elements,

1    12U 59001B   19344.30585171 -.00000025  00000-0 -22422-4 0  9994
2    12  32.9004 296.2191 1666207 156.2750 212.4554 11.44315977500771
Epoch (UTC): 10 December 2019 07:20:25
Eccentricity: 0.1666207
inclination: 32.9004°
perigee height: 554 km
apogee height: 3326 km
right ascension of ascending node: 296.2191°
argument of perigee: 156.2750°
revolutions per day: 11.44315977
mean anomaly at epoch: 212.4554°
orbit number at epoch: 50077

The dashed part of the orbit path shows where the satellite is in the earth's shadow,  

DLR